User: anonymous   Login
Location: Caltech
(34.1382°N, 118.1253°W)
Time: 11:43:25
(UTC-07:00)
Language:

Iridium 75 - Orbit

View from above orbital plane
View from above orbital plane
View from above satellite
View from above satellite

Ground track
Ground track

The orbit data is extracted from the following two-line orbital elements,

1 25346U 98032E   18175.36767864  .01694687 -14777-5  10870-2 0  9992
2 25346  86.5551  68.1165 0351198 157.2462 204.4816 15.53514954 53086
Epoch (UTC): 24 June 2018 08:49:27
Eccentricity: 0.0351198
inclination: 86.5551°
perigee height: 168 km
apogee height: 645 km
right ascension of ascending node: 68.1165°
argument of perigee: 157.2462°
revolutions per day: 15.53514954
mean anomaly at epoch: 204.4816°
orbit number at epoch: 5308

The dashed part of the orbit path shows where the satellite is in the earth's shadow,  

DLR